Weather in Yubileyny

Russia / Kaluga Oblast     54°46′02″N   36°17′01″E
temp.,
°C
wind,
m/s
gust,
m/s
humid.,
%
clouds,
%
prec.,
mm/h
press.,
hPa
HPBL,
m
16 june, wed
wed1600:00+15nnw22930 0.0 101133
03:00+14nnw34930 0.0 101155
06:00+15nnw37930 0.0 1012212
09:00+19n577392 0.0 1013607
12:00+21nnw566740 0.1 10141185
15:00+22n56579 0.3 10141430
18:00+20nnw58642 0.0 1015546
21:00+15n410774 0.0 1017174
17 june, thu
thu1700:00+12ne34750 0.0 101956
03:00+11nne23815 0.0 102128
06:00+13nne24822 0.0 102398
09:00+18nne23635 0.0 1023409
12:00+21n33505 0.0 10241427
15:00+23n334855 0.0 10241513
18:00+22n24610 0.0 1024488
21:00+16e22780 0.0 102519
18 june, fri
fri1800:00+14se12872 0.0 102710
03:00+12se11850 0.0 102810
06:00+15se117855 0.0 102834
09:00+20sse12625 0.0 1028429
12:00+23sse235231 0.0 10281451
15:00+24sse22520 0.0 10271531
18:00+23sse23645 0.0 1027611
21:00+17sse33820 0.0 102730
19 june, sat
sat1900:00+14s22870 0.0 102826
03:00+13ssw22900 0.0 102819
06:00+15ssw23875 0.0 102993
09:00+20ssw23700 0.0 1028512
12:00+23s23540 0.0 10271182
15:00+25ssw33530 0.0 10261437
18:00+24sw23655 0.0 1025777
21:00+18s22860 0.0 102617
20 june, sun
sun2000:00+15s229148 0.0 102624
03:00+14s22925 0.0 102718
06:00+15s23895 0.0 102695
09:00+20s23690 0.0 1026552
12:00+24sse34540 0.0 10251224
15:00+25s34510 0.0 10241473
18:00+24ssw24650 0.0 1023656
21:00+19s228714 0.0 102320